CP7 (DAVE) (43615 NORAD) Tracking and Keplerian Element Data

This shows tracking and keplerian element data for the satellite.

Feedback or suggestion? Click here.




ElementValue
Catalog43615
NameCP7 (DAVE)
Epoch Orbit4610
Epoch Day193.75054711
Epoch Year2019
RAAN13.5923
Inclination93.0227
Eccentricity0.0014741
Argument of Perigee203.3438
Mean Anonmoly156.7147
Mean Motion15.37513465
Decay Rate2.058E-05
L11 43615U 18070C 19193.75054711 .00002058 00000-0 56021-4 0 9991
L22 43615 93.0227 13.5923 0014741 203.3438 156.7147 15.37513465 46109

Live tracking and technical data element details for CP7 (DAVE) (NORAD 43615). CP7 (DAVE) can be tracked NOW for your location showing map with azimuth and elevation plus other details from your city location.

Track the satellite on the map from your city or location and see movement details for azimuth, elevation, latitude, longitude, range, height, and movement on the map or in text.







IsCatalogInMostPopularTable: catalog: 43615, numindb: 166
Update: records affected: 1



GetName: 43615 CP7 (DAVE)

Hit Count: updated at: Wed, 17 Jul 2019 08:48:10 GMT